Location: ??????
(41.3794°N, 22.5014°E)
Time: 22:01:03
(UTC+00:00)

Cosmos 1934 Rocket - Pass Details

Date: 30 November 2020
Orbit: 937 x 1000 km, 83.0° (Epoch: 18 January)

Event Time Altitude Azimuth Distance (km) Brightness Sun altitude
Rises 16:51:52 0° 358° (N) 3,731 7.0 -20.2°
Reaches altitude 10° 16:54:34 10° 5° (N) 2,774 6.2 -20.7°
Maximum altitude 17:00:37 43° 76° (ENE) 1,355 4.2 -21.8°
Enters shadow 17:03:02 31° 124° (SE) 1,664 4.8 -22.3°
Exits shadow 17:04:39 20° 138° (SE) 2,106 5.5 -22.6°
Drops below altitude 10° 17:06:33 10° 147° (SSE) 2,728 6.1 -22.9°
Sets 17:09:10 0° 154° (SSE) 3,663 6.8 -23.4°
